Location: Newark
(46.3833°N, 12.2833°E)
Time: 05:00:35
(UTC+00:00)

LilacSat-2 - Visible Passes

Search period start: 16 October 2019 00:00
Search period end: 26 October 2019 00:00
Orbit: 513 x 536 km, 97.5° (Epoch: 15 October)

Date Brightness Start Highest point End Pass type
(mag) Time Alt. Az. Time Alt. Az. Time Alt. Az.
16 Oct ? 04:10:42 10° NE 04:13:17 17° E 04:15:50 10° SE visible
17 Oct ? 03:59:14 10° ENE 04:01:00 13° E 04:02:45 10° ESE visible
19 Oct ? 17:27:50 10° WSW 17:29:29 12° W 17:31:07 10° WNW visible
20 Oct ? 04:55:23 10° NNE 04:59:06 57° E 05:02:46 10° S visible
20 Oct ? 17:14:42 10° SW 17:17:12 17° W 17:19:43 10° NW visible
21 Oct ? 04:43:19 10° NNE 04:46:54 40° E 04:50:27 10° S visible
21 Oct ? 17:01:55 10° SSW 17:04:57 22° W 17:08:00 10° NW visible
22 Oct ? 04:31:21 10° NE 04:34:41 29° E 04:37:59 10° SSE visible
22 Oct ? 16:49:21 10° SSW 16:52:43 30° W 16:56:07 10° NNW visible
23 Oct ? 04:19:29 10° NE 04:22:26 22° E 04:25:23 10° SE visible
23 Oct ? 16:36:54 10° S 16:40:30 41° W 16:44:07 10° NNW visible
24 Oct ? 04:07:46 10° NE 04:10:11 16° E 04:12:35 10° SE visible
25 Oct ? 03:56:26 10° ENE 03:57:54 12° E 03:59:23 10° ESE visible
